Year,Month,Day,Hour,Minute,Value (Times are PST for temperature in C)
2012,05,29,00,00,9.70
2012,05,29,00,01,9.70
2012,05,29,00,02,9.70
2012,05,29,00,03,9.70
2012,05,29,00,04,9.70
2012,05,29,00,05,9.60
2012,05,29,00,06,9.60
2012,05,29,00,07,9.50
2012,05,29,00,08,9.50
2012,05,29,00,09,9.50
2012,05,29,00,10,9.40
2012,05,29,00,11,9.40
2012,05,29,00,12,9.30
2012,05,29,00,13,9.30
2012,05,29,00,14,9.20
2012,05,29,00,15,9.20
2012,05,29,00,16,9.20
2012,05,29,00,17,9.20
2012,05,29,00,18,9.10
2012,05,29,00,19,9.10
2012,05,29,00,20,9.10
2012,05,29,00,21,9.00
2012,05,29,00,22,9.00
2012,05,29,00,23,9.00
2012,05,29,00,24,8.90
2012,05,29,00,25,8.90
2012,05,29,00,26,8.90
2012,05,29,00,27,8.90
2012,05,29,00,28,8.80
2012,05,29,00,29,8.80
2012,05,29,00,30,8.80
2012,05,29,00,31,8.70
2012,05,29,00,32,8.70
2012,05,29,00,33,8.70
2012,05,29,00,34,8.70
2012,05,29,00,35,8.70
2012,05,29,00,36,8.70
2012,05,29,00,37,8.60
2012,05,29,00,38,8.60
2012,05,29,00,39,8.60
2012,05,29,00,40,8.60
2012,05,29,00,41,8.50
2012,05,29,00,42,8.50
2012,05,29,00,43,8.50
2012,05,29,00,44,8.50
2012,05,29,00,45,8.50
2012,05,29,00,46,8.50
2012,05,29,00,47,8.40
2012,05,29,00,48,8.40
2012,05,29,00,49,8.40
2012,05,29,00,50,8.40
2012,05,29,00,51,8.30
2012,05,29,00,52,8.30
2012,05,29,00,53,8.30
2012,05,29,00,54,8.30
2012,05,29,00,55,8.30
2012,05,29,00,56,8.20
2012,05,29,00,57,8.20
2012,05,29,00,58,8.20
2012,05,29,00,59,8.20
2012,05,29,01,00,8.20
2012,05,29,01,01,8.20
2012,05,29,01,02,8.20
2012,05,29,01,03,8.20
2012,05,29,01,04,8.20
2012,05,29,01,05,8.10
2012,05,29,01,06,8.10
2012,05,29,01,07,8.00
2012,05,29,01,08,7.90
2012,05,29,01,09,7.90
2012,05,29,01,10,7.80
2012,05,29,01,11,7.80
2012,05,29,01,12,7.80
2012,05,29,01,13,7.80
2012,05,29,01,14,7.70
2012,05,29,01,15,7.70
2012,05,29,01,16,7.70
2012,05,29,01,17,7.60
2012,05,29,01,18,7.60
2012,05,29,01,19,7.60
2012,05,29,01,20,7.60
2012,05,29,01,21,7.60
2012,05,29,01,22,7.60
2012,05,29,01,23,7.60
2012,05,29,01,24,7.60
2012,05,29,01,25,7.50
2012,05,29,01,26,7.50
2012,05,29,01,27,7.50
2012,05,29,01,28,7.40
2012,05,29,01,29,7.40
2012,05,29,01,30,7.40
2012,05,29,01,31,7.40
2012,05,29,01,32,7.40
2012,05,29,01,33,7.30
2012,05,29,01,34,7.30
2012,05,29,01,35,7.30
2012,05,29,01,36,7.30
2012,05,29,01,37,7.30
2012,05,29,01,38,7.30
2012,05,29,01,39,7.30
2012,05,29,01,40,7.30
2012,05,29,01,41,7.30
2012,05,29,01,42,7.30
2012,05,29,01,43,7.30
2012,05,29,01,44,7.30
2012,05,29,01,45,7.30
2012,05,29,01,46,7.30
2012,05,29,01,47,7.30
2012,05,29,01,48,7.30
2012,05,29,01,49,7.30
2012,05,29,01,50,7.30
2012,05,29,01,51,7.30
2012,05,29,01,52,7.30
2012,05,29,01,53,7.30
2012,05,29,01,54,7.30
2012,05,29,01,55,7.20
2012,05,29,01,56,7.20
2012,05,29,01,57,7.20
2012,05,29,01,58,7.20
2012,05,29,01,59,7.20
2012,05,29,02,00,7.20
2012,05,29,02,01,7.20
2012,05,29,02,02,7.20
2012,05,29,02,03,7.10
2012,05,29,02,04,7.10
2012,05,29,02,05,7.10
2012,05,29,02,06,7.10
2012,05,29,02,07,7.10
2012,05,29,02,08,7.10
2012,05,29,02,09,7.10
2012,05,29,02,10,7.00
2012,05,29,02,11,7.10
2012,05,29,02,12,7.10
2012,05,29,02,13,7.00
2012,05,29,02,14,7.00
2012,05,29,02,15,7.00
2012,05,29,02,16,7.00
2012,05,29,02,17,6.90
2012,05,29,02,18,6.90
2012,05,29,02,19,6.90
2012,05,29,02,20,6.90
2012,05,29,02,21,6.90
2012,05,29,02,22,6.90
2012,05,29,02,23,6.90
2012,05,29,02,24,6.90
2012,05,29,02,25,6.90
2012,05,29,02,26,6.90
2012,05,29,02,27,6.90
2012,05,29,02,28,6.80
2012,05,29,02,29,6.80
2012,05,29,02,30,6.80
2012,05,29,02,31,6.80
2012,05,29,02,32,6.80
2012,05,29,02,33,6.70
2012,05,29,02,34,6.70
2012,05,29,02,35,6.60
2012,05,29,02,36,6.60
2012,05,29,02,37,6.60
2012,05,29,02,38,6.60
2012,05,29,02,39,6.60
2012,05,29,02,40,6.60
2012,05,29,02,41,6.60
2012,05,29,02,42,6.60
2012,05,29,02,43,6.60
2012,05,29,02,44,6.50
2012,05,29,02,45,6.40
2012,05,29,02,46,6.40
2012,05,29,02,47,6.40
2012,05,29,02,48,6.40
2012,05,29,02,49,6.40
2012,05,29,02,50,6.40
2012,05,29,02,51,6.40
2012,05,29,02,52,6.40
2012,05,29,02,53,6.40
2012,05,29,02,54,6.30
2012,05,29,02,55,6.30
2012,05,29,02,56,6.30
2012,05,29,02,57,6.30
2012,05,29,02,58,6.30
2012,05,29,02,59,6.20
2012,05,29,03,00,6.20
2012,05,29,03,01,6.20
2012,05,29,03,02,6.20
2012,05,29,03,03,6.20
2012,05,29,03,04,6.20
2012,05,29,03,05,6.20
2012,05,29,03,06,6.20
2012,05,29,03,07,6.20
2012,05,29,03,08,6.20
2012,05,29,03,09,6.10
2012,05,29,03,10,6.10
2012,05,29,03,11,6.10
2012,05,29,03,12,6.10
2012,05,29,03,13,6.10
2012,05,29,03,14,6.10
2012,05,29,03,15,6.10
2012,05,29,03,16,6.10
2012,05,29,03,17,6.10
2012,05,29,03,18,6.10
2012,05,29,03,19,6.10
2012,05,29,03,20,6.10
2012,05,29,03,21,6.10
2012,05,29,03,22,6.00
2012,05,29,03,23,6.00
2012,05,29,03,24,6.00
2012,05,29,03,25,5.90
2012,05,29,03,26,5.90
2012,05,29,03,27,5.90
2012,05,29,03,28,5.90
2012,05,29,03,29,5.90
2012,05,29,03,30,5.80
2012,05,29,03,31,5.80
2012,05,29,03,32,5.80
2012,05,29,03,33,5.80
2012,05,29,03,34,5.80
2012,05,29,03,35,5.80
2012,05,29,03,36,5.80
2012,05,29,03,37,5.80
2012,05,29,03,38,5.90
2012,05,29,03,39,5.90
2012,05,29,03,40,5.90
2012,05,29,03,41,5.90
2012,05,29,03,42,5.90
2012,05,29,03,43,5.90
2012,05,29,03,44,5.90
2012,05,29,03,45,5.90
2012,05,29,03,46,5.80
2012,05,29,03,47,5.80
2012,05,29,03,48,5.80
2012,05,29,03,49,5.80
2012,05,29,03,50,5.80
2012,05,29,03,51,5.80
2012,05,29,03,52,5.80
2012,05,29,03,53,5.90
2012,05,29,03,54,5.90
2012,05,29,03,55,5.90
2012,05,29,03,56,5.90
2012,05,29,03,57,5.90
2012,05,29,03,58,5.80
2012,05,29,03,59,5.80
2012,05,29,04,00,5.80
2012,05,29,04,01,5.80
2012,05,29,04,02,5.80
2012,05,29,04,03,5.90
2012,05,29,04,04,5.90
2012,05,29,04,05,5.90
2012,05,29,04,06,5.90
2012,05,29,04,07,5.90
2012,05,29,04,08,5.90
2012,05,29,04,09,5.90
2012,05,29,04,10,5.90
2012,05,29,04,11,5.90
2012,05,29,04,12,5.80
2012,05,29,04,13,5.80
2012,05,29,04,14,5.80
2012,05,29,04,15,5.80
2012,05,29,04,16,5.80
2012,05,29,04,17,5.80
2012,05,29,04,18,5.80
2012,05,29,04,19,5.80
2012,05,29,04,20,5.70
2012,05,29,04,21,5.70
2012,05,29,04,22,5.70
2012,05,29,04,23,5.70
2012,05,29,04,24,5.70
2012,05,29,04,25,5.70
2012,05,29,04,26,5.70
2012,05,29,04,27,5.70
2012,05,29,04,28,5.70
2012,05,29,04,29,5.70
2012,05,29,04,30,5.80
2012,05,29,04,31,5.80
2012,05,29,04,32,5.80
2012,05,29,04,33,5.80
2012,05,29,04,34,5.70
2012,05,29,04,35,5.70
2012,05,29,04,36,5.70
2012,05,29,04,37,5.70
2012,05,29,04,38,5.70
2012,05,29,04,39,5.70
2012,05,29,04,40,5.70
2012,05,29,04,41,5.70
2012,05,29,04,42,5.70
2012,05,29,04,43,5.70
2012,05,29,04,44,5.70
2012,05,29,04,45,5.70
2012,05,29,04,46,5.60
2012,05,29,04,47,5.60
2012,05,29,04,48,5.60
2012,05,29,04,49,5.60
2012,05,29,04,50,5.60
2012,05,29,04,51,5.60
2012,05,29,04,52,5.60
2012,05,29,04,53,5.60
2012,05,29,04,54,5.60
2012,05,29,04,55,5.60
2012,05,29,04,56,5.60
2012,05,29,04,57,5.60
2012,05,29,04,58,5.60
2012,05,29,04,59,5.60
2012,05,29,05,00,5.50
2012,05,29,05,01,5.50
2012,05,29,05,02,5.50
2012,05,29,05,03,5.50
2012,05,29,05,04,5.50
2012,05,29,05,05,5.50
2012,05,29,05,06,5.50
2012,05,29,05,07,5.50
2012,05,29,05,08,5.50
2012,05,29,05,09,5.50
2012,05,29,05,10,5.50
2012,05,29,05,11,5.40
2012,05,29,05,12,5.30
2012,05,29,05,13,5.30
2012,05,29,05,14,5.30
2012,05,29,05,15,5.30
2012,05,29,05,16,5.30
2012,05,29,05,17,5.30
2012,05,29,05,18,5.30
2012,05,29,05,19,5.30
2012,05,29,05,20,5.30
2012,05,29,05,21,5.30
2012,05,29,05,22,5.30
2012,05,29,05,23,5.30
2012,05,29,05,24,5.30
2012,05,29,05,25,5.30
2012,05,29,05,26,5.20
2012,05,29,05,27,5.20
2012,05,29,05,28,5.20
2012,05,29,05,29,5.10
2012,05,29,05,30,5.10
2012,05,29,05,31,5.20
2012,05,29,05,32,5.20
2012,05,29,05,33,5.10
2012,05,29,05,34,5.10
2012,05,29,05,35,5.10
2012,05,29,05,36,5.10
2012,05,29,05,37,5.10
2012,05,29,05,38,5.00
2012,05,29,05,39,4.90
2012,05,29,05,40,4.90
2012,05,29,05,41,4.90
2012,05,29,05,42,4.90
2012,05,29,05,43,5.00
2012,05,29,05,44,5.10
2012,05,29,05,45,5.10
2012,05,29,05,46,5.10
2012,05,29,05,47,5.10
2012,05,29,05,48,5.20
2012,05,29,05,49,5.20
2012,05,29,05,50,5.20
2012,05,29,05,51,5.30
2012,05,29,05,52,5.30
2012,05,29,05,53,5.30
2012,05,29,05,54,5.30
2012,05,29,05,55,5.30
2012,05,29,05,56,5.20
2012,05,29,05,57,5.20
2012,05,29,05,58,5.10
2012,05,29,05,59,5.10
2012,05,29,06,00,5.10
2012,05,29,06,01,5.10
2012,05,29,06,02,5.00
2012,05,29,06,03,4.90
2012,05,29,06,04,4.90
2012,05,29,06,05,4.90
2012,05,29,06,06,4.90
2012,05,29,06,07,4.90
2012,05,29,06,08,4.90
2012,05,29,06,09,4.90
2012,05,29,06,10,5.00
2012,05,29,06,11,5.10
2012,05,29,06,12,5.10
2012,05,29,06,13,5.20
2012,05,29,06,14,5.30
2012,05,29,06,15,5.40
2012,05,29,06,16,5.50
2012,05,29,06,17,5.50
2012,05,29,06,18,5.50
2012,05,29,06,19,5.60
2012,05,29,06,20,5.60
2012,05,29,06,21,5.70
2012,05,29,06,22,5.70
2012,05,29,06,23,5.70
2012,05,29,06,24,5.70
2012,05,29,06,25,5.70
2012,05,29,06,26,5.80
2012,05,29,06,27,5.80
2012,05,29,06,28,5.80
2012,05,29,06,29,5.80
2012,05,29,06,30,5.80
2012,05,29,06,31,5.90
2012,05,29,06,32,5.90
2012,05,29,06,33,5.90
2012,05,29,06,34,5.90
2012,05,29,06,35,6.00
2012,05,29,06,36,6.00
2012,05,29,06,37,6.00
2012,05,29,06,38,6.10
2012,05,29,06,39,6.10
2012,05,29,06,40,6.20
2012,05,29,06,41,6.20
2012,05,29,06,42,6.20
2012,05,29,06,43,6.30
2012,05,29,06,44,6.30
2012,05,29,06,45,6.40
2012,05,29,06,46,6.40
2012,05,29,06,47,6.50
2012,05,29,06,48,6.60
2012,05,29,06,49,6.60
2012,05,29,06,50,6.70
2012,05,29,06,51,6.70
2012,05,29,06,52,6.80
2012,05,29,06,53,6.80
2012,05,29,06,54,6.90
2012,05,29,06,55,6.90
2012,05,29,06,56,7.00
2012,05,29,06,57,7.00
2012,05,29,06,58,7.10
2012,05,29,06,59,7.10
2012,05,29,07,00,7.20
2012,05,29,07,01,7.20
2012,05,29,07,02,7.20
2012,05,29,07,03,7.30
2012,05,29,07,04,7.30
2012,05,29,07,05,7.30
2012,05,29,07,06,7.30
2012,05,29,07,07,7.30
2012,05,29,07,08,7.40
2012,05,29,07,09,7.40
2012,05,29,07,10,7.40
2012,05,29,07,11,7.40
2012,05,29,07,12,7.50
2012,05,29,07,13,7.50
2012,05,29,07,14,7.60
2012,05,29,07,15,7.70
2012,05,29,07,16,7.80
2012,05,29,07,17,7.80
2012,05,29,07,18,7.90
2012,05,29,07,19,8.00
2012,05,29,07,20,8.00
2012,05,29,07,21,8.10
2012,05,29,07,22,8.20
2012,05,29,07,23,8.20
2012,05,29,07,24,8.30
2012,05,29,07,25,8.30
2012,05,29,07,26,8.40
2012,05,29,07,27,8.50
2012,05,29,07,28,8.50
2012,05,29,07,29,8.60
2012,05,29,07,30,8.70
2012,05,29,07,31,8.70
2012,05,29,07,32,8.70
2012,05,29,07,33,8.80
2012,05,29,07,34,8.80
2012,05,29,07,35,8.90
2012,05,29,07,36,8.90
2012,05,29,07,37,9.00
2012,05,29,07,38,9.10
2012,05,29,07,39,9.10
2012,05,29,07,40,9.20
2012,05,29,07,41,9.30
2012,05,29,07,42,9.30
2012,05,29,07,43,9.40
2012,05,29,07,44,9.40
2012,05,29,07,45,9.50
2012,05,29,07,46,9.50
2012,05,29,07,47,9.50
2012,05,29,07,48,9.50
2012,05,29,07,49,9.60
2012,05,29,07,50,9.60
2012,05,29,07,51,9.70
2012,05,29,07,52,9.70
2012,05,29,07,53,9.80
2012,05,29,07,54,9.90
2012,05,29,07,55,9.90
2012,05,29,07,56,9.90
2012,05,29,07,57,10.00
2012,05,29,07,58,10.10
2012,05,29,07,59,10.10
2012,05,29,08,00,10.10
2012,05,29,08,01,10.20
2012,05,29,08,02,10.30
2012,05,29,08,03,10.30
2012,05,29,08,04,10.40
2012,05,29,08,05,10.40
2012,05,29,08,06,10.50
2012,05,29,08,07,10.60
2012,05,29,08,08,10.60
2012,05,29,08,09,10.60
2012,05,29,08,10,10.70
2012,05,29,08,11,10.70
2012,05,29,08,12,10.70
2012,05,29,08,13,10.70
2012,05,29,08,14,10.80
2012,05,29,08,15,10.80
2012,05,29,08,16,10.80
2012,05,29,08,17,10.80
2012,05,29,08,18,10.90
2012,05,29,08,19,10.90
2012,05,29,08,20,10.90
2012,05,29,08,21,11.00
2012,05,29,08,22,11.10
2012,05,29,08,23,11.10
2012,05,29,08,24,11.10
2012,05,29,08,25,11.20
2012,05,29,08,26,11.20
2012,05,29,08,27,11.20
2012,05,29,08,28,11.30
2012,05,29,08,29,11.30
2012,05,29,08,30,11.40
2012,05,29,08,31,11.40
2012,05,29,08,32,11.40
2012,05,29,08,33,11.40
2012,05,29,08,34,11.40
2012,05,29,08,35,11.40
2012,05,29,08,36,11.40
2012,05,29,08,37,11.40
2012,05,29,08,38,11.50
2012,05,29,08,39,11.60
2012,05,29,08,40,11.60
2012,05,29,08,41,11.60
2012,05,29,08,42,11.60
2012,05,29,08,43,11.60
2012,05,29,08,44,11.60
2012,05,29,08,45,11.60
2012,05,29,08,46,11.70
2012,05,29,08,47,11.70
2012,05,29,08,48,11.80
2012,05,29,08,49,11.80
2012,05,29,08,50,11.90
2012,05,29,08,51,11.90
2012,05,29,08,52,12.00
2012,05,29,08,53,12.10
2012,05,29,08,54,12.10
2012,05,29,08,55,12.00
2012,05,29,08,56,12.10
2012,05,29,08,57,12.10
2012,05,29,08,58,12.10
2012,05,29,08,59,12.20
2012,05,29,09,00,12.20
2012,05,29,09,01,12.20
2012,05,29,09,02,12.20
2012,05,29,09,03,12.10
2012,05,29,09,04,12.10
2012,05,29,09,05,12.10
2012,05,29,09,06,12.10
2012,05,29,09,07,12.20
2012,05,29,09,08,12.20
2012,05,29,09,09,12.30
2012,05,29,09,10,12.30
2012,05,29,09,11,12.40
2012,05,29,09,12,12.50
2012,05,29,09,13,12.50
2012,05,29,09,14,12.60
2012,05,29,09,15,12.60
2012,05,29,09,16,12.70
2012,05,29,09,17,12.70
2012,05,29,09,18,12.70
2012,05,29,09,19,12.80
2012,05,29,09,20,12.80
2012,05,29,09,21,12.80
2012,05,29,09,22,12.80
2012,05,29,09,23,12.80
2012,05,29,09,24,12.80
2012,05,29,09,25,12.80
2012,05,29,09,26,12.80
2012,05,29,09,27,12.90
2012,05,29,09,28,13.00
2012,05,29,09,29,13.00
2012,05,29,09,30,13.10
2012,05,29,09,31,13.10
2012,05,29,09,32,13.20
2012,05,29,09,33,13.20
2012,05,29,09,34,13.20
2012,05,29,09,35,13.20
2012,05,29,09,36,13.20
2012,05,29,09,37,13.20
2012,05,29,09,38,13.30
2012,05,29,09,39,13.30
2012,05,29,09,40,13.30
2012,05,29,09,41,13.30
2012,05,29,09,42,13.20
2012,05,29,09,43,13.10
2012,05,29,09,44,12.90
2012,05,29,09,45,12.80
2012,05,29,09,46,12.80
2012,05,29,09,47,12.80
2012,05,29,09,48,12.70
2012,05,29,09,49,12.80
2012,05,29,09,50,12.80
2012,05,29,09,51,12.80
2012,05,29,09,52,12.80
2012,05,29,09,53,12.80
2012,05,29,09,54,12.80
2012,05,29,09,55,12.80
2012,05,29,09,56,12.80
2012,05,29,09,57,12.80
2012,05,29,09,58,12.90
2012,05,29,09,59,12.90
2012,05,29,10,00,12.90
2012,05,29,10,01,12.90
2012,05,29,10,02,12.80
2012,05,29,10,03,12.80
2012,05,29,10,04,12.70
2012,05,29,10,05,12.70
2012,05,29,10,06,12.60
2012,05,29,10,07,12.50
2012,05,29,10,08,12.50
2012,05,29,10,09,12.50
2012,05,29,10,10,12.50
2012,05,29,10,11,12.60
2012,05,29,10,12,12.60
2012,05,29,10,13,12.70
2012,05,29,10,14,12.70
2012,05,29,10,15,12.80
2012,05,29,10,16,12.80
2012,05,29,10,17,12.80
2012,05,29,10,18,12.80
2012,05,29,10,19,12.80
2012,05,29,10,20,12.80
2012,05,29,10,21,12.80
2012,05,29,10,22,12.80
2012,05,29,10,23,12.80
2012,05,29,10,24,12.80
2012,05,29,10,25,12.80
2012,05,29,10,26,12.80
2012,05,29,10,27,12.80
2012,05,29,10,28,12.80
2012,05,29,10,29,12.80
2012,05,29,10,30,12.70
2012,05,29,10,31,12.70
2012,05,29,10,32,12.60
2012,05,29,10,33,12.60
2012,05,29,10,34,12.50
2012,05,29,10,35,12.60
2012,05,29,10,36,12.60
2012,05,29,10,37,12.60
2012,05,29,10,38,12.60
2012,05,29,10,39,12.60
2012,05,29,10,40,12.60
2012,05,29,10,41,12.50
2012,05,29,10,42,12.50
2012,05,29,10,43,12.40
2012,05,29,10,44,12.40
2012,05,29,10,45,12.40
2012,05,29,10,46,12.40
2012,05,29,10,47,12.40
2012,05,29,10,48,12.40
2012,05,29,10,49,12.50
2012,05,29,10,50,12.50
2012,05,29,10,51,12.50
2012,05,29,10,52,12.50
2012,05,29,10,53,12.60
2012,05,29,10,54,12.60
2012,05,29,10,55,12.70
2012,05,29,10,56,12.60
2012,05,29,10,57,12.70
2012,05,29,10,58,12.70
2012,05,29,10,59,12.80
2012,05,29,11,00,12.80
2012,05,29,11,01,12.80
2012,05,29,11,02,12.80
2012,05,29,11,03,12.80
2012,05,29,11,04,12.80
2012,05,29,11,05,12.80
2012,05,29,11,06,12.70
2012,05,29,11,07,12.70
2012,05,29,11,08,12.70
2012,05,29,11,09,12.70
2012,05,29,11,10,12.70
2012,05,29,11,11,12.80
2012,05,29,11,12,12.80
2012,05,29,11,13,12.80
2012,05,29,11,14,12.70
2012,05,29,11,15,12.70
2012,05,29,11,16,12.70
2012,05,29,11,17,12.60
2012,05,29,11,18,12.60
2012,05,29,11,19,12.60
2012,05,29,11,20,12.50
2012,05,29,11,21,12.50
2012,05,29,11,22,12.40
2012,05,29,11,23,12.40
2012,05,29,11,24,12.40
2012,05,29,11,25,12.40
2012,05,29,11,26,12.40
2012,05,29,11,27,12.30
2012,05,29,11,28,12.30
2012,05,29,11,29,12.30
2012,05,29,11,30,12.30
2012,05,29,11,31,12.20
2012,05,29,11,32,12.20
2012,05,29,11,33,12.20
2012,05,29,11,34,12.20
2012,05,29,11,35,12.10
2012,05,29,11,36,12.20
2012,05,29,11,37,12.20
2012,05,29,11,38,12.20
2012,05,29,11,39,12.20
2012,05,29,11,40,12.20
2012,05,29,11,41,12.20
2012,05,29,11,42,12.30
2012,05,29,11,43,12.50
2012,05,29,11,44,12.70
2012,05,29,11,45,12.80
2012,05,29,11,46,12.80
2012,05,29,11,47,12.80
2012,05,29,11,48,12.80
2012,05,29,11,49,12.80
2012,05,29,11,50,12.90
2012,05,29,11,51,12.90
2012,05,29,11,52,13.00
2012,05,29,11,53,13.00
2012,05,29,11,54,13.10
2012,05,29,11,55,13.10
2012,05,29,11,56,13.20
2012,05,29,11,57,13.30
2012,05,29,11,58,13.30
2012,05,29,11,59,13.40
2012,05,29,12,00,13.50
2012,05,29,12,01,13.60
2012,05,29,12,02,13.60
2012,05,29,12,03,13.70
2012,05,29,12,04,13.70
2012,05,29,12,05,13.70
2012,05,29,12,06,13.60
2012,05,29,12,07,13.60
2012,05,29,12,08,13.50
2012,05,29,12,09,13.50
2012,05,29,12,10,13.50
2012,05,29,12,11,13.50
2012,05,29,12,12,13.50
2012,05,29,12,13,13.50
2012,05,29,12,14,13.50
2012,05,29,12,15,13.60
2012,05,29,12,16,13.60
2012,05,29,12,17,13.70
2012,05,29,12,18,13.80
2012,05,29,12,19,13.90
2012,05,29,12,20,14.00
2012,05,29,12,21,14.00
2012,05,29,12,22,14.10
2012,05,29,12,23,14.20
2012,05,29,12,24,14.20
2012,05,29,12,25,14.20
2012,05,29,12,26,14.20
2012,05,29,12,27,14.30
2012,05,29,12,28,14.40
2012,05,29,12,29,14.50
2012,05,29,12,30,14.50
2012,05,29,12,31,14.40
2012,05,29,12,32,14.40
2012,05,29,12,33,14.40
2012,05,29,12,34,14.40
2012,05,29,12,35,14.30
2012,05,29,12,36,14.30
2012,05,29,12,37,14.40
2012,05,29,12,38,14.40
2012,05,29,12,39,14.20
2012,05,29,12,40,14.20
2012,05,29,12,41,14.30
2012,05,29,12,42,14.40
2012,05,29,12,43,14.50
2012,05,29,12,44,14.60
2012,05,29,12,45,14.60
2012,05,29,12,46,14.60
2012,05,29,12,47,14.60
2012,05,29,12,48,14.60
2012,05,29,12,49,14.60
2012,05,29,12,50,14.60
2012,05,29,12,51,14.70
2012,05,29,12,52,14.70
2012,05,29,12,53,14.70
2012,05,29,12,54,14.70
2012,05,29,12,55,14.70
2012,05,29,12,56,14.60
2012,05,29,12,57,14.70
2012,05,29,12,58,14.70
2012,05,29,12,59,14.70
2012,05,29,13,00,14.80
2012,05,29,13,01,14.90
2012,05,29,13,02,15.00
2012,05,29,13,03,15.00
2012,05,29,13,04,15.10
2012,05,29,13,05,15.20
2012,05,29,13,06,15.20
2012,05,29,13,07,15.20
2012,05,29,13,08,15.20
2012,05,29,13,09,15.20
2012,05,29,13,10,15.10
2012,05,29,13,11,15.20
2012,05,29,13,12,15.10
2012,05,29,13,13,15.10
2012,05,29,13,14,15.20
2012,05,29,13,15,15.20
2012,05,29,13,16,15.30
2012,05,29,13,17,15.30
2012,05,29,13,18,15.40
2012,05,29,13,19,15.40
2012,05,29,13,20,15.40
2012,05,29,13,21,15.50
2012,05,29,13,22,15.40
2012,05,29,13,23,15.30
2012,05,29,13,24,15.30
2012,05,29,13,25,15.20
2012,05,29,13,26,15.10
2012,05,29,13,27,15.10
2012,05,29,13,28,15.10
2012,05,29,13,29,15.10
2012,05,29,13,30,15.20
2012,05,29,13,31,15.30
2012,05,29,13,32,15.40
2012,05,29,13,33,15.50
2012,05,29,13,34,15.50
2012,05,29,13,35,15.40
2012,05,29,13,36,15.30
2012,05,29,13,37,15.40
2012,05,29,13,38,15.40
2012,05,29,13,39,15.30
2012,05,29,13,40,15.50
2012,05,29,13,41,15.60
2012,05,29,13,42,15.70
2012,05,29,13,43,15.80
2012,05,29,13,44,15.80
2012,05,29,13,45,15.80
2012,05,29,13,46,15.80
2012,05,29,13,47,15.90
2012,05,29,13,48,16.10
2012,05,29,13,49,16.10
2012,05,29,13,50,16.10
2012,05,29,13,51,16.10
2012,05,29,13,52,16.10
2012,05,29,13,53,16.10
2012,05,29,13,54,16.10
2012,05,29,13,55,15.90
2012,05,29,13,56,15.80
2012,05,29,13,57,15.90
2012,05,29,13,58,15.90
2012,05,29,13,59,15.90
2012,05,29,14,00,15.90
2012,05,29,14,01,15.90
2012,05,29,14,02,15.90
2012,05,29,14,03,15.90
2012,05,29,14,04,15.80
2012,05,29,14,05,15.80
2012,05,29,14,06,15.70
2012,05,29,14,07,15.70
2012,05,29,14,08,15.70
2012,05,29,14,09,15.70
2012,05,29,14,10,15.80
2012,05,29,14,11,15.90
2012,05,29,14,12,16.10
2012,05,29,14,13,16.20
2012,05,29,14,14,16.30
2012,05,29,14,15,16.40
2012,05,29,14,16,16.40
2012,05,29,14,17,16.50
2012,05,29,14,18,16.60
2012,05,29,14,19,16.70
2012,05,29,14,20,16.70
2012,05,29,14,21,16.70
2012,05,29,14,22,16.70
2012,05,29,14,23,16.50
2012,05,29,14,24,16.40
2012,05,29,14,25,16.30
2012,05,29,14,26,16.20
2012,05,29,14,27,16.10
2012,05,29,14,28,16.10
2012,05,29,14,29,16.10
2012,05,29,14,30,16.10
2012,05,29,14,31,16.10
2012,05,29,14,32,16.10
2012,05,29,14,33,16.10
2012,05,29,14,34,16.10
2012,05,29,14,35,16.10
2012,05,29,14,36,16.10
2012,05,29,14,37,16.10
2012,05,29,14,38,16.10
2012,05,29,14,39,16.10
2012,05,29,14,40,16.10
2012,05,29,14,41,16.20
2012,05,29,14,42,16.30
2012,05,29,14,43,16.40
2012,05,29,14,44,16.30
2012,05,29,14,45,16.40
2012,05,29,14,46,16.40
2012,05,29,14,47,16.40
2012,05,29,14,48,16.40
2012,05,29,14,49,16.40
2012,05,29,14,50,16.40
2012,05,29,14,51,16.30
2012,05,29,14,52,16.20
2012,05,29,14,53,16.10
2012,05,29,14,54,16.10
2012,05,29,14,55,16.20
2012,05,29,14,56,16.20
2012,05,29,14,57,16.30
2012,05,29,14,58,16.40
2012,05,29,14,59,16.30
2012,05,29,15,00,16.20
2012,05,29,15,01,16.20
2012,05,29,15,02,16.10
2012,05,29,15,03,15.90
2012,05,29,15,04,15.90
2012,05,29,15,05,16.10
2012,05,29,15,06,16.10
2012,05,29,15,07,16.20
2012,05,29,15,08,16.10
2012,05,29,15,09,16.10
2012,05,29,15,10,16.10
2012,05,29,15,11,16.10
2012,05,29,15,12,16.10
2012,05,29,15,13,16.00
2012,05,29,15,14,15.80
2012,05,29,15,15,15.80
2012,05,29,15,16,15.90
2012,05,29,15,17,16.00
2012,05,29,15,18,16.10
2012,05,29,15,19,16.10
2012,05,29,15,20,16.10
2012,05,29,15,21,16.20
2012,05,29,15,22,16.30
2012,05,29,15,23,16.40
2012,05,29,15,24,16.40
2012,05,29,15,25,16.40
2012,05,29,15,26,16.20
2012,05,29,15,27,16.10
2012,05,29,15,28,16.10
2012,05,29,15,29,16.10
2012,05,29,15,30,16.10
2012,05,29,15,31,16.10
2012,05,29,15,32,16.10
2012,05,29,15,33,16.10
2012,05,29,15,34,16.00
2012,05,29,15,35,15.90
2012,05,29,15,36,15.80
2012,05,29,15,37,15.80
2012,05,29,15,38,15.80
2012,05,29,15,39,15.70
2012,05,29,15,40,15.70
2012,05,29,15,41,15.70
2012,05,29,15,42,15.70
2012,05,29,15,43,15.70
2012,05,29,15,44,15.50
2012,05,29,15,45,15.50
2012,05,29,15,46,15.40
2012,05,29,15,47,15.50
2012,05,29,15,48,15.60
2012,05,29,15,49,15.60
2012,05,29,15,50,15.60
2012,05,29,15,51,15.50
2012,05,29,15,52,15.50
2012,05,29,15,53,15.50
2012,05,29,15,54,15.50
2012,05,29,15,55,15.50
2012,05,29,15,56,15.40
2012,05,29,15,57,15.40
2012,05,29,15,58,15.30
2012,05,29,15,59,15.30
2012,05,29,16,00,15.30
2012,05,29,16,01,15.20
2012,05,29,16,02,15.20
2012,05,29,16,03,15.20
2012,05,29,16,04,15.10
2012,05,29,16,05,15.10
2012,05,29,16,06,15.00
2012,05,29,16,07,15.00
2012,05,29,16,08,15.10
2012,05,29,16,09,15.20
2012,05,29,16,10,15.30
2012,05,29,16,11,15.30
2012,05,29,16,12,15.40
2012,05,29,16,13,15.40
2012,05,29,16,14,15.50
2012,05,29,16,15,15.40
2012,05,29,16,16,15.40
2012,05,29,16,17,15.50
2012,05,29,16,18,15.50
2012,05,29,16,19,15.50
2012,05,29,16,20,15.50
2012,05,29,16,21,15.50
2012,05,29,16,22,15.40
2012,05,29,16,23,15.30
2012,05,29,16,24,15.30
2012,05,29,16,25,15.20
2012,05,29,16,26,15.10
2012,05,29,16,27,15.00
2012,05,29,16,28,15.00
2012,05,29,16,29,14.90
2012,05,29,16,30,14.90
2012,05,29,16,31,14.80
2012,05,29,16,32,14.70
2012,05,29,16,33,14.60
2012,05,29,16,34,14.60
2012,05,29,16,35,14.50
2012,05,29,16,36,14.50
2012,05,29,16,37,14.50
2012,05,29,16,38,14.40
2012,05,29,16,39,14.40
2012,05,29,16,40,14.40
2012,05,29,16,41,14.40
2012,05,29,16,42,14.40
2012,05,29,16,43,14.40
2012,05,29,16,44,14.50
2012,05,29,16,45,14.50
2012,05,29,16,46,14.50
2012,05,29,16,47,14.50
2012,05,29,16,48,14.50
2012,05,29,16,49,14.50
2012,05,29,16,50,14.40
2012,05,29,16,51,14.50
2012,05,29,16,52,14.40
2012,05,29,16,53,14.50
2012,05,29,16,54,14.50
2012,05,29,16,55,14.60
2012,05,29,16,56,14.80
2012,05,29,16,57,14.80
2012,05,29,16,58,14.90
2012,05,29,16,59,14.90
2012,05,29,17,00,14.80
2012,05,29,17,01,14.90
2012,05,29,17,02,14.80
2012,05,29,17,03,14.80
2012,05,29,17,04,14.70
2012,05,29,17,05,14.70
2012,05,29,17,06,14.70
2012,05,29,17,07,14.70
2012,05,29,17,08,14.60
2012,05,29,17,09,14.60
2012,05,29,17,10,14.60
2012,05,29,17,11,14.60
2012,05,29,17,12,14.70
2012,05,29,17,13,14.70
2012,05,29,17,14,14.70
2012,05,29,17,15,14.50
2012,05,29,17,16,14.40
2012,05,29,17,17,14.30
2012,05,29,17,18,14.30
2012,05,29,17,19,14.20
2012,05,29,17,20,14.20
2012,05,29,17,21,14.10
2012,05,29,17,22,14.10
2012,05,29,17,23,14.20
2012,05,29,17,24,14.10
2012,05,29,17,25,14.20
2012,05,29,17,26,14.20
2012,05,29,17,27,14.20
2012,05,29,17,28,14.20
2012,05,29,17,29,14.20
2012,05,29,17,30,14.20
2012,05,29,17,31,14.20
2012,05,29,17,32,14.20
2012,05,29,17,33,14.10
2012,05,29,17,34,14.10
2012,05,29,17,35,14.10
2012,05,29,17,36,14.10
2012,05,29,17,37,14.00
2012,05,29,17,38,14.00
2012,05,29,17,39,14.00
2012,05,29,17,40,14.00